Location: Unspecified
(37.5540°N, 0.0000°E)
Time: 16:17:30
(UTC+00:00)

CZ-4 R/B DEB - Visible Passes

Search period start: 04 April 2026 00:00
Search period end: 14 April 2026 00:00
Orbit: 872 x 886 km, 99.0° (Epoch: 29 March)

Date Brightness Start Highest point End Pass type
(mag) Time Alt. Az. Time Alt. Az. Time Alt. Az.
4 Apr ? 03:15:03 10° NE 03:19:01 19° E 03:22:58 10° SE visible
4 Apr ? 04:55:06 10° N 05:00:31 51° WNW 05:05:56 10° SW visible
5 Apr ? 03:11:36 10° NE 03:15:21 18° E 03:19:04 10° SE visible
5 Apr ? 04:51:25 10° N 04:56:53 55° WNW 05:02:21 10° SSW visible
6 Apr ? 03:08:11 10° NE 03:11:40 17° E 03:15:08 10° SE visible
6 Apr ? 04:47:44 10° N 04:53:15 60° WNW 04:58:46 10° SSW visible
7 Apr ? 03:04:47 10° ENE 03:07:59 15° E 03:11:09 10° SE visible
7 Apr ? 04:44:04 10° N 04:49:38 65° WNW 04:55:11 10° SSW visible
8 Apr ? 03:01:27 10° ENE 03:04:18 14° E 03:07:08 10° ESE visible
8 Apr ? 04:40:24 10° N 04:46:00 70° WNW 04:51:35 10° SSW visible
9 Apr ? 02:58:09 10° ENE 03:00:36 13° E 03:03:01 10° ESE visible
9 Apr ? 04:36:44 10° N 04:42:22 75° WNW 04:47:58 10° SSW visible
10 Apr ? 02:55:00 10° ENE 02:56:55 12° E 02:58:50 10° ESE visible
10 Apr ? 04:33:05 10° N 04:38:43 81° WNW 04:44:21 10° SSW visible
11 Apr ? 02:52:05 10° ENE 02:53:13 11° E 02:54:21 10° ESE visible
11 Apr ? 04:29:26 10° NNE 04:35:05 86° WNW 04:40:43 10° SSW visible
12 Apr ? 04:25:47 10° NNE 04:31:27 88° ESE 04:37:05 10° SSW visible
13 Apr ? 04:22:09 10° NNE 04:27:49 82° ESE 04:33:26 10° SSW visible
